Find Starlink 35349

NORAD ID: 65835 Int'l Des: 2025-221 Owner: SPXS Country: US Constellation: starlink operational
LEOCIRCULAR

Current View

Loading 3D Globe...

About Starlink 35349

Description loading...

Upcoming Passes

Passes for default location (London). Set your location on the main map for personalized predictions.

Altitude History

Loading altitude history...

Two-Line Element Set

1 65835U 25221N 26145.27394102 .00016982 00000-0 58395-3 0 9994
2 65835 53.1575 92.9833 0001154 88.6422 271.4711 15.30212389 36455
Epoch: May 25, 2026 • Age: 25 hours

Current Status

Altitude 481.7 km
Velocity 7.62 km/s
Sub-Earth Point -22.01°S, 73.73°E
Launch Date Sep 29, 2025
Age 0.6 years
Type internet

Technical Details

Classification Payload
Mass 575.00 kg
Dry Mass 530.00 kg
Total Mass 575.00 kg
Length 0.30 m
Diameter 4.10 m
Span 29.00 m
Shape Box + pan
Manufacturer SPXS
Bus Type Starlink V2MO
Phase Status In Orbit
Owner/State SPXS/US

Most Searched